FW2602 Weather Reports


Display with metric or nautical units.
time (UTC)temp
F
wind
direction
speed
MPH
gust
MPH
rain 1hr
in
rain 24hr
in
rain mn
in
humidity
%
barometer
mb
20260901022057 64 63 0.0 3.0 0.00 0.00 0.00 94 1017.0
20260901021608 64 42 0.0 3.0 0.00 0.00 0.00 94 1017.0
20260901021057 64 37 0.0 1.0 0.00 0.00 0.00 94 1017.0
20260901020557 64 37 0.0 1.0 0.00 0.00 0.00 94 1017.0
20260901020112 64 37 0.0 0.0 0.00 0.00 0.00 94 1017.0
20260901015557 64 77 0.0 2.0 0.00 0.00 0.00 94 1017.1
20260901015056 64 78 0.0 2.0 0.00 0.00 0.00 94 1017.0
20260901014556 64 60 0.0 2.0 0.00 0.00 0.00 94 1017.0
20260901014056 64 135 0.0 1.0 0.00 0.00 0.00 94 1016.9
20260901013556 64 321 0.0 2.0 0.00 0.00 0.00 94 1016.9
20260901013059 64 330 0.0 2.0 0.00 0.00 0.00 94 1016.9
20260901012557 64 54 0.0 1.0 0.00 0.00 0.00 94 1017.0
20260901012055 64 56 0.0 1.0 0.00 0.00 0.00 94 1017.1
20260901011555 64 41 0.0 0.0 0.00 0.00 0.00 94 1017.1
20260901011055 64 41 0.0 0.0 0.00 0.00 0.00 94 1016.9
20260901010557 64 41 0.0 1.0 0.00 0.00 0.00 94 1016.9
20260901010055 64 41 0.0 1.0 0.00 0.00 0.00 94 1016.9
20260901005556 64 39 0.0 1.0 0.00 0.00 0.00 94 1016.9
20260901005059 64 38 0.0 3.0 0.00 0.00 0.00 94 1016.8
20260901004604 64 287 0.0 3.0 0.00 0.00 0.00 93 1016.8
20260901004057 64 29 0.0 2.0 0.00 0.00 0.00 93 1016.7
20260901003553 64 54 0.0 1.0 0.00 0.00 0.00 93 1016.8
20260901003054 64 44 0.0 1.0 0.00 0.00 0.00 93 1016.8
20260901002557 64 65 0.0 3.0 0.00 0.00 0.00 93 1016.8
20260901002053 64 45 0.0 3.0 0.00 0.00 0.00 93 1016.8
20260901001553 64 51 0.0 4.0 0.00 0.00 0.00 93 1016.8
20260901001052 64 73 1.0 4.0 0.00 0.00 0.00 93 1016.8
20260901000518 64 75 1.0 4.0 0.00 0.00 0.00 93 1016.8
20260901000015 64 108 1.0 4.0 0.00 0.00 0.00 93 1016.8
20260831235525 64 44 1.0 3.0 0.00 0.00 0.00 92 1016.9
20260831235010 64 62 0.0 2.0 0.00 0.00 0.00 92 1017.0
20260831234516 64 356 0.0 2.0 0.00 0.00 0.00 92 1016.9
20260831234021 64 55 0.0 1.0 0.00 0.00 0.00 92 1017.1
20260831233509 64 74 0.0 4.0 0.00 0.00 0.00 92 1017.1
20260831233016 64 81 0.0 4.0 0.00 0.00 0.00 92 1017.0
20260831232525 64 58 0.0 4.0 0.00 0.00 0.00 92 1017.0
20260831232012 64 94 0.0 4.0 0.00 0.00 0.00 92 1017.1
20260831231516 64 68 1.0 4.0 0.00 0.00 0.00 92 1017.1
20260831231022 64 100 0.0 3.0 0.00 0.00 0.00 92 1017.1
20260831230530 64 75 0.0 3.0 0.00 0.00 0.00 92 1017.1
20260831230011 64 108 1.0 3.0 0.00 0.00 0.00 92 1017.2
20260831225521 64 67 0.0 3.0 0.00 0.02 0.00 92 1017.3
20260831225022 64 68 0.0 3.0 0.00 0.02 0.00 92 1017.3
20260831224512 64 39 0.0 2.0 0.00 0.02 0.00 92 1017.4
20260831224019 64 39 0.0 2.0 0.00 0.02 0.00 92 1017.4
20260831223509 64 359 0.0 0.0 0.00 0.02 0.00 92 1017.4
20260831223016 64 280 0.0 0.0 0.00 0.02 0.00 92 1017.5
20260831222527 65 280 0.0 0.0 0.00 0.02 0.00 91 1017.5
20260831222013 65 280 0.0 0.0 0.00 0.02 0.00 91 1017.6
20260831221518 65 280 0.0 0.0 0.00 0.02 0.00 90 1017.5
20260831221020 65 280 0.0 0.0 0.00 0.02 0.00 89 1017.6
20260831220509 65 280 0.0 0.0 0.00 0.02 0.00 88 1017.7
20260831220017 66 280 0.0 0.0 0.00 0.02 0.00 88 1017.8
20260831215527 66 280 0.0 0.0 0.00 0.03 0.00 87 1017.8
20260831215012 66 280 0.0 0.0 0.00 0.03 0.00 86 1017.8
20260831214517 66 280 0.0 0.0 0.00 0.03 0.00 86 1017.8
20260831214019 66 280 0.0 0.0 0.00 0.03 0.00 86 1017.8
20260831213531 66 280 0.0 4.0 0.00 0.03 0.00 85 1017.7
20260831213010 66 289 2.0 4.0 0.00 0.03 0.00 84 1017.7
20260831212518 67 266 0.0 5.0 0.00 0.03 0.00 83 1017.8
20260831212020 67 276 1.0 5.0 0.00 0.03 0.00 85 1017.8
20260831211528 66 47 0.0 0.0 0.00 0.03 0.00 85 1017.7
20260831211013 67 47 0.0 0.0 0.00 0.03 0.00 86 1017.7
20260831210522 67 47 0.0 0.0 0.00 0.03 0.00 84 1017.7
20260831210007 67 48 0.0 7.0 0.00 0.03 0.00 86 1017.7
20260831205516 67 289 2.0 8.0 0.00 0.03 0.00 84 1017.9
20260831205022 68 273 1.0 8.0 0.00 0.03 0.00 81 1017.9
20260831204527 69 307 4.0 8.0 0.00 0.03 0.00 81 1017.8
20260831204014 69 347 0.0 0.0 0.00 0.03 0.00 83 1017.8
20260831203524 69 347 0.0 1.0 0.00 0.03 0.00 81 1017.7
20260831203023 69 347 0.0 1.0 0.00 0.03 0.00 79 1017.8
20260831202514 69 347 0.0 0.0 0.00 0.03 0.00 80 1017.6
20260831202015 69 347 0.0 0.0 0.00 0.03 0.00 82 1017.6
20260831201529 69 347 0.0 0.0 0.00 0.03 0.00 80 1017.5
20260831201011 69 347 0.0 1.0 0.00 0.03 0.00 83 1017.6
20260831200522 69 347 0.0 1.0 0.00 0.03 0.00 81 1017.6
20260831200029 69 358 0.0 1.0 0.00 0.03 0.00 79 1017.7
20260831195510 69 316 0.0 2.0 0.00 0.03 0.00 81 1017.9
20260831195017 69 335 0.0 4.0 0.00 0.03 0.00 79 1017.8
20260831194538 69 314 0.0 4.0 0.00 0.03 0.00 79 1017.9
20260831194011 70 298 1.0 3.0 0.00 0.03 0.00 78 1017.9
20260831193523 70 278 0.0 1.0 0.00 0.03 0.00 77 1017.9
20260831193020 70 23 0.0 5.0 0.00 0.03 0.00 78 1017.9
20260831192526 70 298 1.0 5.0 0.00 0.03 0.00 76 1018.0
20260831192013 70 288 1.0 4.0 0.00 0.03 0.00 76 1018.0
20260831191521 70 298 0.0 4.0 0.00 0.03 0.00 77 1018.1
20260831191022 70 271 0.0 3.0 0.00 0.03 0.00 76 1018.2
20260831190509 69 295 0.0 2.0 0.00 0.03 0.00 76 1018.2
20260831190017 69 314 0.0 3.0 0.00 0.03 0.00 77 1018.2
20260831185523 69 309 0.0 3.0 0.00 0.03 0.00 78 1018.3
20260831185013 68 312 0.0 3.0 0.00 0.03 0.00 80 1018.2
20260831184515 68 305 0.0 3.0 0.00 0.03 0.00 81 1018.4
20260831184018 67 300 0.0 1.0 0.00 0.03 0.00 81 1018.4
20260831183525 67 321 0.0 0.0 0.00 0.03 0.00 83 1018.5
20260831183009 67 321 0.0 0.0 0.00 0.03 0.00 83 1018.7
20260831182519 67 321 0.0 0.0 0.00 0.03 0.00 84 1018.7
20260831182018 67 296 0.0 4.0 0.00 0.03 0.00 80 1018.8
20260831181530 68 281 0.0 6.0 0.00 0.03 0.00 80 1018.7
20260831181009 68 290 2.0 12.0 0.00 0.03 0.00 79 1018.7
20260831180519 69 285 4.0 12.0 0.00 0.03 0.00 79 1018.8
20260831180021 70 269 2.0 7.0 0.00 0.03 0.00 81 1018.8
20260831175527 70 269 0.0 0.0 0.00 0.03 0.00 81 1018.7
20260831175013 70 297 0.0 1.0 0.00 0.03 0.00 81 1018.7
20260831174526 70 68 0.0 2.0 0.00 0.03 0.00 80 1018.6
20260831174020 71 68 0.0 3.0 0.00 0.03 0.00 80 1018.7
20260831173527 71 183 0.0 1.0 0.00 0.03 0.00 79 1018.9
20260831173011 70 278 0.0 1.0 0.00 0.03 0.00 80 1019.0
20260831172520 70 69 0.0 3.0 0.00 0.03 0.00 82 1019.0
20260831172022 69 9 0.0 4.0 0.00 0.03 0.00 82 1018.9
20260831171513 69 75 0.0 5.0 0.00 0.03 0.00 82 1018.9
20260831171018 69 70 0.0 5.0 0.00 0.03 0.00 84 1019.0
20260831170525 69 92 0.0 5.0 0.00 0.03 0.00 83 1019.1
20260831170008 69 69 0.0 3.0 0.00 0.03 0.00 84 1019.2
20260831165518 68 58 0.0 2.0 0.00 0.03 0.00 84 1019.3
20260831165015 68 39 0.0 3.0 0.00 0.03 0.00 85 1019.0
20260831164526 68 58 0.0 3.0 0.00 0.03 0.00 85 1019.2
20260831164008 68 54 0.0 1.0 0.00 0.03 0.00 84 1019.4
20260831163514 69 65 0.0 1.0 0.00 0.03 0.00 82 1019.5
20260831163031 69 63 0.0 3.0 0.00 0.03 0.00 82 1019.5
20260831162531 69 75 0.0 3.0 0.00 0.03 0.00 81 1019.5
20260831162011 69 51 0.0 1.0 0.00 0.03 0.00 81 1019.5
20260831161515 69 47 0.0 2.0 0.00 0.03 0.00 79 1019.6
20260831161025 69 88 0.0 2.0 0.00 0.03 0.00 81 1019.5
20260831160528 69 64 0.0 4.0 0.00 0.03 0.00 80 1019.5
20260831160013 69 65 1.0 6.0 0.00 0.03 0.00 80 1019.4
20260831155525 69 47 4.0 7.0 0.00 0.03 0.00 78 1019.5
20260831155023 70 96 0.0 1.0 0.00 0.03 0.00 78 1019.6
20260831154513 70 57 0.0 2.0 0.00 0.03 0.00 80 1019.6
20260831154015 69 53 0.0 2.0 0.00 0.03 0.00 83 1019.7
20260831153523 69 321 0.0 2.0 0.00 0.03 0.00 81 1019.6
20260831153011 69 67 0.0 3.0 0.00 0.03 0.00 80 1019.8
20260831152518 69 81 0.0 4.0 0.00 0.03 0.00 80 1019.8
20260831152025 69 37 0.0 1.0 0.00 0.03 0.00 80 1019.8
20260831151510 69 77 0.0 3.0 0.00 0.03 0.00 81 1019.8
20260831151014 69 65 0.0 6.0 0.00 0.03 0.00 82 1019.8
20260831150523 68 67 0.0 6.0 0.00 0.03 0.00 82 1019.7
20260831150015 68 14 0.0 4.0 0.00 0.03 0.00 82 1019.6
20260831145521 68 42 1.0 4.0 0.00 0.03 0.00 80 1019.4
20260831145023 68 347 1.0 5.0 0.00 0.03 0.00 81 1019.5
20260831144512 68 273 1.0 5.0 0.00 0.03 0.00 82 1019.4
20260831144018 68 291 1.0 5.0 0.00 0.03 0.00 83 1019.7
20260831143524 67 56 0.0 5.0 0.00 0.03 0.00 83 1019.9
20260831143115 67 69 1.0 3.0 0.00 0.03 0.00 83 1019.9
20260831142522 67 67 0.0 5.0 0.00 0.03 0.00 84 1019.8
20260831142025 67 13 0.0 5.0 0.00 0.03 0.00 84 1019.8
20260831141534 67 31 0.0 3.0 0.00 0.03 0.00 85 1019.8
20260831141018 67 82 0.0 2.0 0.00 0.03 0.00 86 1019.8
20260831140527 66 68 0.0 2.0 0.00 0.03 0.00 87 1019.8
20260831140031 66 69 0.0 2.0 0.00 0.03 0.00 89 1019.7
20260831135521 66 76 0.0 2.0 0.00 0.03 0.00 89 1019.7
20260831135008 66 43 0.0 0.0 0.00 0.03 0.00 89 1019.7
20260831134518 66 280 0.0 0.0 0.00 0.03 0.00 88 1019.8
20260831134021 66 280 0.0 0.0 0.00 0.03 0.00 88 1019.9
20260831133529 65 274 0.0 0.0 0.00 0.03 0.00 90 1019.8
20260831133029 65 274 0.0 0.0 0.00 0.03 0.00 90 1019.7
20260831132524 65 53 0.0 0.0 0.00 0.03 0.00 90 1019.8
20260831132010 64 304 0.0 0.0 0.00 0.03 0.00 91 1019.6
20260831131517 64 294 0.0 0.0 0.00 0.03 0.00 90 1019.5
20260831131021 64 294 0.0 0.0 0.00 0.03 0.00 91 1019.6
20260831130528 64 326 0.0 0.0 0.00 0.03 0.00 90 1019.6
20260831130012 64 326 0.0 0.0 0.00 0.03 0.00 91 1019.6
20260831125522 64 333 0.0 0.0 0.00 0.03 0.00 92 1019.7
20260831125011 64 260 0.0 0.0 0.00 0.03 0.00 92 1019.7
20260831124521 64 260 0.0 0.0 0.00 0.03 0.00 93 1019.8
20260831124026 64 260 0.0 0.0 0.00 0.03 0.00 93 1019.8
20260831123510 64 146 0.0 2.0 0.00 0.03 0.00 93 1019.8
20260831123020 64 276 0.0 2.0 0.00 0.03 0.00 94 1019.8
20260831122527 63 278 0.0 2.0 0.00 0.03 0.00 94 1019.8
20260831122014 63 295 0.0 2.0 0.00 0.03 0.00 94 1019.8
20260831121531 63 295 0.0 3.0 0.00 0.03 0.00 95 1019.8
20260831121002 63 298 0.0 3.0 0.00 0.03 0.00 95 1019.9
20260831120501 63 308 0.0 1.0 0.00 0.03 0.00 96 1019.8
20260831120103 63 308 0.0 1.0 0.00 0.03 0.00 97 1019.9
20260831115600 62 308 0.0 1.0 0.00 0.03 0.00 97 1020.0
20260831115100 62 312 0.0 0.0 0.00 0.03 0.00 97 1019.9
20260831114559 62 312 0.0 0.0 0.00 0.03 0.00 97 1019.9
20260831114101 62 311 0.0 0.0 0.00 0.03 0.00 97 1019.8
20260831113557 62 312 0.0 0.0 0.00 0.03 0.00 97 1019.8
20260831113058 61 312 0.0 0.0 0.00 0.03 0.00 97 1019.6
20260831112557 61 312 0.0 0.0 0.00 0.03 0.00 97 1019.6
20260831112056 61 312 0.0 0.0 0.00 0.03 0.00 97 1019.5
20260831111600 61 312 0.0 0.0 0.00 0.03 0.00 97 1019.5
20260831111055 61 312 0.0 0.0 0.00 0.03 0.00 97 1019.4
20260831110555 61 311 0.0 0.0 0.00 0.03 0.00 97 1019.4
20260831110058 61 311 0.0 0.0 0.00 0.03 0.00 97 1019.5
20260831105553 61 311 0.0 0.0 0.00 0.03 0.00 97 1019.4
20260831105054 61 311 0.0 0.0 0.00 0.03 0.00 97 1019.4
20260831104553 60 311 0.0 0.0 0.00 0.03 0.00 96 1019.3
20260831104053 60 311 0.0 0.0 0.00 0.03 0.00 96 1019.2
20260831103550 61 311 0.0 0.0 0.00 0.03 0.00 96 1019.1
20260831103050 61 311 0.0 0.0 0.00 0.03 0.00 96 1019.0
20260831102550 61 312 0.0 0.0 0.00 0.03 0.00 96 1019.0
20260831102049 61 312 0.0 0.0 0.00 0.03 0.00 96 1018.9
20260831101609 61 312 0.0 0.0 0.00 0.03 0.00 96 1018.8
20260831101050 61 312 0.0 0.0 0.00 0.03 0.00 96 1018.8
20260831100549 61 312 0.0 0.0 0.00 0.03 0.00 96 1018.9
20260831100058 61 312 0.0 0.0 0.00 0.03 0.00 96 1018.8
20260831095547 61 314 0.0 0.0 0.00 0.03 0.00 96 1018.9
20260831095046 61 311 0.0 0.0 0.00 0.03 0.00 96 1019.0
20260831094546 61 312 0.0 0.0 0.00 0.03 0.00 96 1018.9
20260831094046 61 312 0.0 0.0 0.00 0.03 0.00 96 1018.9
20260831093547 61 311 0.0 0.0 0.00 0.03 0.00 96 1018.9
20260831093048 61 311 0.0 0.0 0.00 0.03 0.00 96 1018.9
20260831092545 61 312 0.0 0.0 0.00 0.03 0.00 96 1018.8
20260831092046 61 311 0.0 0.0 0.00 0.03 0.00 96 1018.8
20260831091547 62 312 0.0 0.0 0.00 0.03 0.00 96 1018.8
20260831091044 61 312 0.0 0.0 0.00 0.03 0.00 96 1018.7
20260831090544 62 312 0.0 0.0 0.00 0.03 0.00 96 1018.7
20260831085544 62 312 0.0 0.0 0.00 0.03 0.00 95 1018.7
20260831085044 62 312 0.0 0.0 0.00 0.03 0.00 95 1018.8
20260831084544 62 312 0.0 0.0 0.00 0.03 0.00 95 1018.7
20260831084043 62 311 0.0 0.0 0.00 0.03 0.00 95 1018.7
20260831083543 62 312 0.0 0.0 0.00 0.03 0.00 95 1018.8
20260831083042 62 312 0.0 0.0 0.00 0.03 0.00 95 1018.8
20260831082542 62 311 0.0 1.0 0.00 0.03 0.00 95 1018.8
20260831082042 62 312 0.0 1.0 0.00 0.03 0.00 95 1018.9
20260831081542 62 312 0.0 0.0 0.00 0.03 0.00 95 1018.8
20260831081042 62 312 0.0 0.0 0.00 0.03 0.00 95 1018.8
20260831080541 62 311 0.0 0.0 0.00 0.03 0.00 95 1018.8
20260831080042 62 311 0.0 0.0 0.00 0.03 0.00 95 1018.8
20260831075540 62 312 0.0 0.0 0.00 0.03 0.00 94 1018.7
20260831075042 62 311 0.0 0.0 0.00 0.03 0.00 94 1018.7
20260831074540 62 312 0.0 3.0 0.00 0.03 0.00 94 1018.6
20260831074040 62 311 0.0 3.0 0.00 0.03 0.00 95 1018.4
20260831073539 62 340 0.0 1.0 0.00 0.03 0.00 95 1018.5
20260831073039 62 340 0.0 1.0 0.00 0.03 0.00 95 1018.4
20260831072538 62 340 0.0 1.0 0.00 0.03 0.00 95 1018.4
20260831072038 62 111 0.0 0.0 0.00 0.03 0.00 95 1018.5
20260831071538 62 112 0.0 1.0 0.00 0.03 0.00 95 1018.6
20260831071038 62 112 0.0 1.0 0.00 0.03 0.00 95 1018.5
20260831070538 61 322 0.0 1.0 0.00 0.03 0.00 95 1018.5
20260831070038 61 322 0.0 1.0 0.00 0.03 0.00 95 1018.6
20260831065538 61 322 0.0 1.0 0.00 0.03 0.00 95 1018.6
20260831065037 61 321 0.0 1.0 0.00 0.03 0.00 95 1018.6
20260831064538 62 322 0.0 0.0 0.00 0.03 0.00 94 1018.6
20260831064037 62 322 0.0 1.0 0.00 0.03 0.00 94 1018.6
20260831063536 62 322 0.0 4.0 0.00 0.03 0.00 94 1018.5
20260831063036 62 284 0.0 3.0 0.00 0.03 0.00 94 1018.6
20260831062536 62 267 0.0 3.0 0.00 0.03 0.00 94 1018.6
20260831062036 62 260 0.0 4.0 0.00 0.03 0.00 95 1018.6
20260831061540 61 272 2.0 4.0 0.00 0.03 0.00 95 1018.5
20260831061036 61 273 1.0 4.0 0.00 0.03 0.00 95 1018.5
20260831060535 61 297 0.0 4.0 0.00 0.03 0.00 95 1018.5
20260831060036 61 253 0.0 3.0 0.00 0.03 0.00 95 1018.6
20260831055534 61 295 1.0 3.0 0.00 0.03 0.00 95 1018.6
20260831055034 61 304 0.0 1.0 0.00 0.03 0.00 95 1018.6
20260831054534 61 269 0.0 2.0 0.00 0.03 0.00 95 1018.7
20260831054034 61 295 0.0 2.0 0.00 0.03 0.00 94 1018.6
20260831053533 62 269 0.0 3.0 0.00 0.03 0.00 94 1018.6
20260831053032 62 267 0.0 4.0 0.00 0.03 0.00 94 1018.6
20260831052532 62 283 0.0 4.0 0.00 0.03 0.00 94 1018.6
20260831052032 62 297 1.0 5.0 0.00 0.03 0.00 94 1018.6
20260831051536 62 285 1.0 5.0 0.00 0.03 0.00 94 1018.6
20260831051030 62 251 2.0 4.0 0.00 0.03 0.00 94 1018.6
20260831050530 62 293 1.0 4.0 0.00 0.03 0.00 94 1018.6
20260831050030 62 259 0.0 4.0 0.00 0.03 0.00 94 1018.6
20260831045530 62 309 0.0 5.0 0.00 0.03 0.00 94 1018.7
20260831045032 62 255 1.0 5.0 0.00 0.03 0.00 94 1018.7
20260831044529 62 283 2.0 7.0 0.00 0.03 0.00 94 1018.6
20260831044032 62 298 4.0 7.0 0.00 0.03 0.00 94 1018.6
20260831043527 62 295 2.0 7.0 0.00 0.03 0.00 94 1018.6
20260831043027 62 284 4.0 7.0 0.00 0.03 0.00 94 1018.6
20260831042528 62 301 3.0 6.0 0.00 0.03 0.00 94 1018.6
20260831042027 62 308 1.0 6.0 0.00 0.03 0.00 94 1018.5
20260831041529 62 299 2.0 6.0 0.00 0.03 0.00 94 1018.5
20260831041029 62 298 2.0 8.0 0.00 0.03 0.00 94 1018.5
20260831040528 63 302 5.0 8.0 0.00 0.03 0.00 94 1018.6
20260831040024 62 289 3.0 6.0 0.00 0.03 0.00 94 1018.6
20260831035524 62 276 3.0 5.0 0.00 0.03 0.03 95 1018.6
20260831035024 62 283 2.0 5.0 0.00 0.03 0.03 95 1018.8
20260831034524 62 297 2.0 4.0 0.00 0.03 0.03 95 1018.8
20260831034024 62 293 1.0 5.0 0.00 0.03 0.03 95 1018.9
20260831033523 62 283 1.0 5.0 0.00 0.03 0.03 95 1018.9
20260831033032 62 295 2.0 5.0 0.00 0.03 0.03 94 1019.0
20260831032523 62 294 1.0 5.0 0.00 0.03 0.03 94 1019.0
20260831032023 62 291 1.0 5.0 0.00 0.03 0.03 94 1019.0
20260831031528 63 262 1.0 8.0 0.00 0.03 0.03 94 1019.0
20260831031022 63 303 5.0 8.0 0.00 0.03 0.03 93 1019.1
20260831030522 63 288 3.0 6.0 0.00 0.03 0.03 93 1019.0
20260831030023 63 311 1.0 4.0 0.00 0.03 0.03 93 1019.0
20260831025522 63 289 1.0 5.0 0.00 0.03 0.03 94 1018.9
20260831025021 63 294 2.0 5.0 0.00 0.03 0.03 94 1018.9
20260831024538 63 285 1.0 4.0 0.00 0.03 0.03 94 1018.9
20260831024021 63 276 0.0 4.0 0.00 0.03 0.03 94 1018.8
20260831023520 63 294 2.0 6.0 0.00 0.03 0.03 94 1018.9
20260831023020 62 296 2.0 6.0 0.00 0.03 0.03 94 1018.8
20260831022520 63 294 2.0 6.0 0.00 0.03 0.03 94 1018.8